| time (UTC) | temp F | wind direction | speed knots | gust knots | rain 1hr in | rain 24hr in | rain mn in | humidity % | barometer mb |
| 20260505223805 | 72 | 92 | 1.7 | 2.6 | 0.00 | 0.00 | 0.00 | 76 | 1015.9 |
| 20260505223304 | 72 | 93 | 3.5 | 5.2 | 0.00 | 0.00 | 0.00 | 76 | 1015.8 |
| 20260505222804 | 71 | 89 | 2.6 | 6.1 | 0.00 | 0.00 | 0.00 | 77 | 1015.8 |
| 20260505222306 | 71 | 85 | 4.3 | 7.0 | 0.00 | 0.00 | 0.00 | 77 | 1015.8 |
| 20260505221305 | 70 | 107 | 3.5 | 6.1 | 0.00 | 0.00 | 0.00 | 78 | 1015.7 |
| 20260505220805 | 70 | 106 | 3.5 | 7.0 | 0.00 | 0.00 | 0.00 | 78 | 1015.7 |
| 20260505220304 | 70 | 105 | 4.3 | 7.0 | 0.00 | 0.00 | 0.00 | 80 | 1015.7 |
| 20260505215305 | 67 | 17 | 0.9 | 5.2 | 0.00 | 0.00 | 0.00 | 80 | 1015.6 |
| 20260505214804 | 67 | 144 | 5.2 | 5.2 | 0.00 | 0.00 | 0.00 | 80 | 1015.6 |
| 20260505214305 | 67 | 144 | 5.2 | 6.1 | 0.00 | 0.00 | 0.00 | 80 | 1015.6 |
| 20260505213805 | 67 | 113 | 4.3 | 7.8 | 0.00 | 0.00 | 0.00 | 81 | 1015.5 |
| 20260505212804 | 66 | 93 | 2.6 | 7.8 | 0.00 | 0.00 | 0.00 | 82 | 1015.4 |
| 20260505212305 | 65 | 124 | 4.3 | 7.0 | 0.00 | 0.00 | 0.00 | 83 | 1015.4 |
| 20260505211805 | 65 | 108 | 3.5 | 6.1 | 0.00 | 0.00 | 0.00 | 83 | 1015.3 |
| 20260505211304 | 64 | 135 | 2.6 | 7.8 | 0.00 | 0.00 | 0.00 | 83 | 1015.3 |
| 20260505210804 | 64 | 122 | 3.5 | 6.1 | 0.00 | 0.00 | 0.00 | 83 | 1015.1 |
| 20260505210305 | 63 | 112 | 2.6 | 5.2 | 0.00 | 0.00 | 0.00 | 83 | 1015.1 |
| 20260505205804 | 63 | 117 | 2.6 | 5.2 | 0.00 | 0.00 | 0.00 | 83 | 1015.1 |
| 20260505204805 | 63 | 121 | 1.7 | 4.3 | 0.00 | 0.00 | 0.00 | 82 | 1014.9 |
| 20260505204304 | 63 | 112 | 1.7 | 6.1 | 0.00 | 0.00 | 0.00 | 82 | 1014.9 |
| 20260505203805 | 63 | 113 | 2.6 | 6.1 | 0.00 | 0.00 | 0.00 | 82 | 1014.9 |
| 20260505202805 | 63 | 102 | 2.6 | 7.0 | 0.00 | 0.00 | 0.00 | 82 | 1014.8 |
| 20260505202307 | 63 | 117 | 2.6 | 6.1 | 0.00 | 0.00 | 0.00 | 82 | 1014.8 |
| 20260505201804 | 63 | 113 | 4.3 | 7.0 | 0.00 | 0.00 | 0.00 | 82 | 1014.8 |
| 20260505201305 | 63 | 107 | 4.3 | 7.8 | 0.00 | 0.00 | 0.00 | 81 | 1014.8 |
| 20260505200305 | 63 | 118 | 4.3 | 7.8 | 0.00 | 0.00 | 0.00 | 81 | 1014.8 |
| 20260505195805 | 63 | 104 | 3.5 | 7.0 | 0.00 | 0.00 | 0.00 | 81 | 1014.9 |
| 20260505195305 | 63 | 115 | 2.6 | 10.4 | 0.00 | 0.00 | 0.00 | 81 | 1014.8 |
| 20260505194806 | 63 | 99 | 2.6 | 8.7 | 0.00 | 0.00 | 0.00 | 81 | 1014.8 |
| 20260505194304 | 63 | 137 | 5.2 | 11.3 | 0.00 | 0.00 | 0.00 | 81 | 1014.7 |
| 20260505193804 | 63 | 121 | 3.5 | 7.8 | 0.00 | 0.00 | 0.00 | 81 | 1014.7 |
| 20260505193304 | 63 | 136 | 5.2 | 10.4 | 0.00 | 0.00 | 0.00 | 80 | 1014.6 |
| 20260505192805 | 63 | 141 | 5.2 | 7.8 | 0.00 | 0.00 | 0.00 | 80 | 1014.7 |
| 20260505192306 | 63 | 160 | 4.3 | 8.7 | 0.00 | 0.00 | 0.00 | 80 | 1014.6 |
| 20260505191805 | 63 | 150 | 5.2 | 11.3 | 0.00 | 0.00 | 0.00 | 79 | 1014.6 |
| 20260505190806 | 63 | 144 | 4.3 | 7.8 | 0.00 | 0.00 | 0.00 | 80 | 1014.5 |
| 20260505190304 | 63 | 142 | 5.2 | 10.4 | 0.00 | 0.00 | 0.00 | 80 | 1014.5 |
| 20260505185805 | 62 | 150 | 5.2 | 7.8 | 0.00 | 0.00 | 0.00 | 79 | 1014.4 |
| 20260505185305 | 62 | 138 | 3.5 | 8.7 | 0.00 | 0.00 | 0.00 | 79 | 1014.4 |
| 20260505184804 | 62 | 139 | 4.3 | 7.8 | 0.00 | 0.00 | 0.00 | 79 | 1014.4 |
| 20260505183804 | 62 | 141 | 2.6 | 6.1 | 0.00 | 0.00 | 0.00 | 79 | 1014.3 |
| 20260505182804 | 62 | 133 | 1.7 | 6.1 | 0.00 | 0.00 | 0.00 | 78 | 1014.3 |
| 20260505181806 | 62 | 138 | 2.6 | 4.3 | 0.00 | 0.00 | 0.00 | 78 | 1014.3 |
| 20260505181304 | 62 | 146 | 2.6 | 6.1 | 0.00 | 0.00 | 0.00 | 78 | 1014.3 |
| 20260505180305 | 62 | 153 | 2.6 | 7.0 | 0.00 | 0.00 | 0.00 | 77 | 1014.2 |
| 20260505175804 | 62 | 156 | 2.6 | 5.2 | 0.00 | 0.00 | 0.00 | 77 | 1014.2 |
| 20260505175305 | 62 | 144 | 1.7 | 5.2 | 0.00 | 0.00 | 0.00 | 77 | 1014.2 |
| 20260505174805 | 62 | 153 | 2.6 | 4.3 | 0.00 | 0.00 | 0.00 | 77 | 1014.2 |
| 20260505174305 | 62 | 150 | 2.6 | 5.2 | 0.00 | 0.00 | 0.00 | 76 | 1014.2 |
| 20260505173805 | 62 | 159 | 2.6 | 5.2 | 0.00 | 0.00 | 0.00 | 76 | 1014.2 |
| 20260505173304 | 62 | 161 | 4.3 | 6.1 | 0.00 | 0.00 | 0.00 | 76 | 1014.2 |
| 20260505172806 | 62 | 155 | 2.6 | 6.1 | 0.00 | 0.00 | 0.00 | 75 | 1014.1 |
| 20260505172306 | 63 | 153 | 1.7 | 4.3 | 0.00 | 0.00 | 0.00 | 75 | 1014.1 |
| 20260505171805 | 63 | 153 | 2.6 | 5.2 | 0.00 | 0.00 | 0.00 | 75 | 1014.2 |
| 20260505171304 | 63 | 157 | 2.6 | 7.0 | 0.00 | 0.00 | 0.00 | 74 | 1014.1 |
| 20260505170806 | 63 | 160 | 4.3 | 6.1 | 0.00 | 0.00 | 0.00 | 74 | 1014.1 |
| 20260505170306 | 63 | 158 | 3.5 | 7.8 | 0.00 | 0.00 | 0.00 | 74 | 1014.2 |
| 20260505165306 | 63 | 138 | 2.6 | 6.1 | 0.00 | 0.00 | 0.00 | 74 | 1014.3 |
| 20260505164804 | 63 | 150 | 2.6 | 6.1 | 0.00 | 0.00 | 0.00 | 73 | 1014.3 |
| 20260505163805 | 63 | 121 | 0.9 | 2.6 | 0.00 | 0.00 | 0.00 | 73 | 1014.5 |
| 20260505163306 | 63 | 121 | 0.9 | 2.6 | 0.00 | 0.00 | 0.00 | 73 | 1014.6 |
| 20260505162804 | 63 | 121 | 0.9 | 2.6 | 0.00 | 0.00 | 0.00 | 74 | 1014.7 |
| 20260505161805 | 63 | 117 | 2.6 | 6.1 | 0.00 | 0.00 | 0.00 | 75 | 1014.7 |
| 20260505161304 | 63 | 125 | 2.6 | 7.8 | 0.00 | 0.00 | 0.00 | 75 | 1014.9 |
| 20260505160804 | 62 | 147 | 2.6 | 6.1 | 0.00 | 0.00 | 0.00 | 76 | 1014.9 |
| 20260505160304 | 62 | 159 | 4.3 | 5.2 | 0.00 | 0.00 | 0.00 | 76 | 1014.9 |
| 20260505153306 | 63 | 159 | 1.7 | 2.6 | 0.00 | 0.00 | 0.00 | 76 | 1015.0 |
| 20260505152305 | 63 | 159 | 1.7 | 2.6 | 0.00 | 0.00 | 0.00 | 75 | 1015.1 |
| 20260505151806 | 63 | 159 | 0.9 | 1.7 | 0.00 | 0.00 | 0.00 | 75 | 1015.1 |
| 20260505151304 | 63 | 159 | 1.7 | 1.7 | 0.00 | 0.00 | 0.00 | 75 | 1015.1 |
| 20260505150805 | 63 | 159 | 1.7 | 4.3 | 0.00 | 0.00 | 0.00 | 75 | 1015.2 |
| 20260505140304 | 64 | 170 | 4.3 | 7.8 | 0.00 | 0.01 | 0.00 | 75 | 1015.9 |
| 20260505130306 | 65 | 148 | 2.6 | 6.1 | 0.00 | 0.01 | 0.00 | 77 | 1016.5 |
| 20260505124804 | 65 | 110 | 2.6 | 6.1 | 0.00 | 0.01 | 0.00 | 78 | 1016.5 |
| 20260505124304 | 65 | 119 | 1.7 | 2.6 | 0.00 | 0.01 | 0.00 | 78 | 1016.5 |
| 20260505123804 | 65 | 123 | 0.9 | 6.1 | 0.00 | 0.01 | 0.00 | 79 | 1016.5 |
| 20260505123305 | 65 | 121 | 1.7 | 2.6 | 0.00 | 0.01 | 0.00 | 79 | 1016.5 |
| 20260505122804 | 65 | 120 | 1.7 | 2.6 | 0.00 | 0.01 | 0.00 | 79 | 1016.4 |
| 20260505122305 | 65 | 121 | 1.7 | 4.3 | 0.00 | 0.01 | 0.00 | 80 | 1016.4 |
| 20260505121805 | 65 | 123 | 4.3 | 7.0 | 0.00 | 0.01 | 0.00 | 80 | 1016.4 |
| 20260505121304 | 65 | 130 | 2.6 | 6.1 | 0.00 | 0.01 | 0.00 | 80 | 1016.4 |
| 20260505120805 | 65 | 132 | 2.6 | 4.3 | 0.00 | 0.01 | 0.00 | 81 | 1016.4 |
| 20260505120305 | 66 | 110 | 2.6 | 5.2 | 0.00 | 0.01 | 0.00 | 81 | 1016.5 |
| 20260505115805 | 66 | 119 | 2.6 | 4.3 | 0.00 | 0.01 | 0.00 | 81 | 1016.4 |
| 20260505115305 | 66 | 115 | 1.7 | 2.6 | 0.00 | 0.01 | 0.00 | 81 | 1016.5 |
| 20260505114804 | 66 | 117 | 2.6 | 5.2 | 0.00 | 0.01 | 0.00 | 81 | 1016.4 |
| 20260505114304 | 66 | 132 | 1.7 | 6.1 | 0.00 | 0.01 | 0.00 | 81 | 1016.5 |
| 20260505113804 | 66 | 137 | 2.6 | 6.1 | 0.00 | 0.01 | 0.00 | 81 | 1016.5 |
| 20260505113304 | 67 | 135 | 2.6 | 6.1 | 0.00 | 0.01 | 0.00 | 81 | 1016.5 |
| 20260505112805 | 67 | 153 | 2.6 | 7.0 | 0.00 | 0.01 | 0.00 | 81 | 1016.5 |
| 20260505112305 | 67 | 135 | 1.7 | 6.1 | 0.00 | 0.01 | 0.00 | 81 | 1016.5 |
| 20260505111804 | 67 | 132 | 1.7 | 4.3 | 0.00 | 0.01 | 0.00 | 81 | 1016.5 |
| 20260505111304 | 67 | 132 | 2.6 | 7.0 | 0.00 | 0.01 | 0.00 | 81 | 1016.5 |
| 20260505110804 | 67 | 127 | 3.5 | 10.4 | 0.00 | 0.01 | 0.00 | 81 | 1016.6 |
| 20260505110304 | 68 | 137 | 2.6 | 7.8 | 0.00 | 0.01 | 0.00 | 81 | 1016.6 |
| 20260505101804 | 69 | 149 | 4.3 | 6.1 | 0.00 | 0.01 | 0.00 | 79 | 1016.4 |
| 20260505101304 | 69 | 141 | 2.6 | 7.0 | 0.00 | 0.01 | 0.00 | 79 | 1016.4 |
| 20260505100805 | 69 | 155 | 1.7 | 5.2 | 0.00 | 0.01 | 0.00 | 79 | 1016.4 |
| 20260505100304 | 69 | 151 | 1.7 | 4.3 | 0.00 | 0.01 | 0.00 | 78 | 1016.4 |
| 20260505095804 | 70 | 157 | 1.7 | 6.1 | 0.00 | 0.01 | 0.00 | 78 | 1016.3 |
| 20260505095305 | 70 | 156 | 0.9 | 1.7 | 0.00 | 0.01 | 0.00 | 78 | 1016.2 |
| 20260505094804 | 70 | 155 | 1.7 | 6.1 | 0.00 | 0.01 | 0.00 | 78 | 1016.2 |
| 20260505094305 | 70 | 126 | 1.7 | 2.6 | 0.00 | 0.01 | 0.00 | 77 | 1016.1 |
| 20260505093804 | 70 | 124 | 0.9 | 4.3 | 0.00 | 0.01 | 0.00 | 77 | 1016.0 |
| 20260505093305 | 70 | 128 | 3.5 | 6.1 | 0.00 | 0.01 | 0.00 | 77 | 1015.9 |
| 20260505092805 | 70 | 124 | 2.6 | 6.1 | 0.00 | 0.01 | 0.00 | 77 | 1015.9 |
| 20260505092305 | 71 | 110 | 2.6 | 5.2 | 0.00 | 0.01 | 0.00 | 76 | 1015.8 |
| 20260505091804 | 71 | 107 | 2.6 | 5.2 | 0.00 | 0.01 | 0.00 | 75 | 1015.7 |
| 20260505091305 | 71 | 101 | 2.6 | 6.1 | 0.00 | 0.01 | 0.00 | 75 | 1015.7 |
| 20260505090805 | 71 | 111 | 0.9 | 2.6 | 0.00 | 0.01 | 0.00 | 75 | 1015.6 |
| 20260505090304 | 71 | 111 | 1.7 | 5.2 | 0.00 | 0.01 | 0.00 | 74 | 1015.5 |
| 20260505085804 | 72 | 110 | 1.7 | 2.6 | 0.00 | 0.01 | 0.00 | 74 | 1015.4 |
| 20260505085305 | 72 | 111 | 2.6 | 7.0 | 0.00 | 0.01 | 0.00 | 74 | 1015.3 |
| 20260505084805 | 72 | 111 | 2.6 | 6.1 | 0.00 | 0.01 | 0.00 | 73 | 1015.2 |
| 20260505084304 | 72 | 113 | 2.6 | 6.1 | 0.00 | 0.01 | 0.00 | 73 | 1015.1 |
| 20260505083804 | 72 | 114 | 1.7 | 5.2 | 0.00 | 0.01 | 0.00 | 72 | 1015.0 |
| 20260505083305 | 73 | 113 | 2.6 | 5.2 | 0.00 | 0.01 | 0.00 | 72 | 1014.9 |
| 20260505082305 | 73 | 109 | 3.5 | 6.1 | 0.00 | 0.01 | 0.00 | 72 | 1014.8 |
| 20260505081804 | 73 | 121 | 3.5 | 7.0 | 0.00 | 0.01 | 0.00 | 71 | 1014.7 |
| 20260505081304 | 73 | 119 | 2.6 | 4.3 | 0.00 | 0.01 | 0.00 | 71 | 1014.7 |
| 20260505080804 | 74 | 126 | 1.7 | 4.3 | 0.00 | 0.01 | 0.00 | 70 | 1014.7 |
| 20260505080305 | 74 | 126 | 2.6 | 7.0 | 0.00 | 0.01 | 0.00 | 70 | 1014.7 |
| 20260505075804 | 74 | 140 | 3.5 | 10.4 | 0.00 | 0.01 | 0.00 | 69 | 1014.6 |
| 20260505075304 | 74 | 123 | 5.2 | 8.7 | 0.00 | 0.01 | 0.00 | 69 | 1014.5 |
| 20260505074805 | 75 | 108 | 4.3 | 7.8 | 0.00 | 0.01 | 0.00 | 69 | 1014.5 |
| 20260505073804 | 75 | 133 | 4.3 | 7.0 | 0.00 | 0.01 | 0.00 | 68 | 1014.4 |
| 20260505073304 | 76 | 133 | 4.3 | 8.7 | 0.00 | 0.01 | 0.00 | 67 | 1014.4 |
| 20260505072804 | 76 | 134 | 4.3 | 6.1 | 0.00 | 0.01 | 0.00 | 67 | 1014.3 |
| 20260505072305 | 76 | 117 | 4.3 | 6.1 | 0.00 | 0.01 | 0.00 | 66 | 1014.2 |
| 20260505071805 | 77 | 128 | 4.3 | 10.4 | 0.00 | 0.01 | 0.00 | 66 | 1014.1 |
| 20260505071305 | 77 | 131 | 4.3 | 10.4 | 0.00 | 0.01 | 0.00 | 65 | 1014.1 |
| 20260505070305 | 79 | 3 | 0.0 | 0.0 | 0.00 | 0.01 | 0.00 | 60 | 1014.0 |
| 20260505065305 | 79 | 7 | 2.6 | 4.3 | 0.00 | 0.01 | 0.00 | 60 | 1013.9 |
| 20260505064804 | 79 | 158 | 4.3 | 4.3 | 0.00 | 0.01 | 0.00 | 60 | 1013.7 |
| 20260505064305 | 79 | 158 | 4.3 | 10.4 | 0.00 | 0.01 | 0.00 | 60 | 1013.7 |
| 20260505063804 | 79 | 156 | 7.0 | 10.4 | 0.00 | 0.01 | 0.00 | 60 | 1013.6 |
| 20260505063304 | 79 | 140 | 6.1 | 11.3 | 0.00 | 0.01 | 0.00 | 61 | 1013.6 |
| 20260505062804 | 79 | 136 | 5.2 | 11.3 | 0.00 | 0.01 | 0.00 | 63 | 1013.5 |
| 20260505061305 | 78 | 131 | 5.2 | 10.4 | 0.00 | 0.01 | 0.00 | 63 | 1013.5 |
| 20260505060305 | 81 | 3 | 0.0 | 0.0 | 0.00 | 0.01 | 0.00 | 61 | 1013.4 |
| 20260505055804 | 81 | 3 | 0.0 | 0.0 | 0.00 | 0.01 | 0.00 | 61 | 1013.4 |
| 20260505054804 | 81 | 3 | 0.0 | 0.0 | 0.00 | 0.01 | 0.00 | 61 | 1013.3 |
| 20260505053805 | 81 | 6 | 1.7 | 2.6 | 0.00 | 0.01 | 0.00 | 61 | 1013.2 |
| 20260505053304 | 81 | 108 | 2.6 | 2.6 | 0.00 | 0.01 | 0.00 | 61 | 1013.0 |
| 20260505052804 | 81 | 108 | 4.3 | 12.2 | 0.00 | 0.01 | 0.00 | 61 | 1013.0 |
| 20260505052304 | 81 | 80 | 6.1 | 10.4 | 0.00 | 0.01 | 0.00 | 60 | 1013.0 |
| 20260505051804 | 81 | 93 | 6.1 | 10.4 | 0.00 | 0.01 | 0.00 | 60 | 1012.9 |
| 20260505050305 | 82 | 152 | 5.2 | 8.7 | 0.00 | 0.01 | 0.00 | 58 | 1013.0 |
| 20260505041304 | 82 | 134 | 2.6 | 2.6 | 0.00 | 0.01 | 0.00 | 57 | 1013.3 |
| 20260505040804 | 82 | 148 | 2.6 | 2.6 | 0.00 | 0.01 | 0.00 | 57 | 1013.2 |
| 20260505035804 | 82 | 102 | 7.8 | 7.8 | 0.00 | 0.01 | 0.00 | 57 | 1013.4 |
| 20260505035304 | 82 | 131 | 3.5 | 8.7 | 0.00 | 0.01 | 0.00 | 57 | 1013.4 |
| 20260505034805 | 82 | 97 | 5.2 | 7.8 | 0.00 | 0.01 | 0.00 | 58 | 1013.5 |
| 20260505034305 | 81 | 135 | 5.2 | 11.3 | 0.00 | 0.01 | 0.00 | 58 | 1013.5 |
| 20260505033306 | 81 | 171 | 6.1 | 8.7 | 0.00 | 0.01 | 0.00 | 59 | 1013.7 |
| 20260505032804 | 81 | 100 | 4.3 | 7.8 | 0.00 | 0.01 | 0.00 | 59 | 1013.8 |
| 20260505032304 | 82 | 132 | 5.2 | 7.8 | 0.00 | 0.01 | 0.00 | 59 | 1013.7 |
| 20260505031804 | 81 | 162 | 7.0 | 10.4 | 0.00 | 0.01 | 0.00 | 60 | 1013.8 |
| 20260505030305 | 81 | 136 | 3.5 | 10.4 | 0.00 | 0.01 | 0.00 | 61 | 1014.1 |
| 20260505025805 | 81 | 118 | 6.1 | 8.7 | 0.00 | 0.01 | 0.00 | 61 | 1014.2 |
| 20260505025305 | 81 | 157 | 4.3 | 8.7 | 0.00 | 0.01 | 0.00 | 61 | 1014.4 |
| 20260505024805 | 81 | 128 | 7.0 | 10.4 | 0.00 | 0.01 | 0.00 | 63 | 1014.6 |
| 20260505024305 | 81 | 115 | 2.6 | 5.2 | 0.00 | 0.01 | 0.00 | 63 | 1014.7 |
| 20260505023804 | 81 | 117 | 2.6 | 7.8 | 0.00 | 0.01 | 0.00 | 62 | 1014.8 |
| 20260505022806 | 81 | 109 | 4.3 | 10.4 | 0.00 | 0.01 | 0.00 | 62 | 1014.9 |
| 20260505022306 | 81 | 111 | 3.5 | 7.0 | 0.00 | 0.01 | 0.00 | 62 | 1014.9 |
| 20260505021804 | 81 | 127 | 2.6 | 7.0 | 0.00 | 0.01 | 0.00 | 62 | 1015.1 |
| 20260505021305 | 81 | 146 | 4.3 | 8.7 | 0.00 | 0.01 | 0.00 | 62 | 1015.1 |
| 20260505020804 | 80 | 131 | 6.1 | 10.4 | 0.00 | 0.01 | 0.00 | 62 | 1015.2 |
| 20260505015804 | 80 | 167 | 7.0 | 10.4 | 0.00 | 0.01 | 0.00 | 63 | 1015.3 |
| 20260505014804 | 80 | 158 | 6.1 | 10.4 | 0.00 | 0.01 | 0.00 | 64 | 1015.4 |
| 20260505014307 | 79 | 142 | 2.6 | 10.4 | 0.00 | 0.01 | 0.00 | 65 | 1015.5 |
| 20260505013804 | 79 | 146 | 6.1 | 10.4 | 0.00 | 0.01 | 0.00 | 65 | 1015.6 |
| 20260505013304 | 78 | 130 | 5.2 | 11.3 | 0.00 | 0.01 | 0.00 | 66 | 1015.7 |
| 20260505012804 | 78 | 135 | 6.1 | 11.3 | 0.00 | 0.01 | 0.00 | 66 | 1015.8 |
| 20260505012305 | 78 | 130 | 6.1 | 10.4 | 0.00 | 0.01 | 0.00 | 65 | 1015.9 |
| 20260505011805 | 79 | 115 | 5.2 | 10.4 | 0.00 | 0.01 | 0.00 | 67 | 1015.9 |
| 20260505011304 | 78 | 159 | 7.0 | 10.4 | 0.00 | 0.01 | 0.00 | 68 | 1015.9 |
| 20260505010304 | 78 | 111 | 7.0 | 10.4 | 0.00 | 0.01 | 0.00 | 71 | 1016.0 |
| 20260505005805 | 78 | 143 | 5.2 | 11.3 | 0.00 | 0.01 | 0.00 | 71 | 1016.1 |
| 20260505005305 | 77 | 113 | 6.1 | 10.4 | 0.00 | 0.01 | 0.00 | 71 | 1016.2 |
| 20260505004806 | 77 | 135 | 7.0 | 11.3 | 0.00 | 0.01 | 0.00 | 72 | 1016.2 |
| 20260505004304 | 76 | 125 | 5.2 | 10.4 | 0.00 | 0.01 | 0.00 | 73 | 1016.3 |
| 20260505003804 | 76 | 161 | 4.3 | 6.1 | 0.00 | 0.01 | 0.00 | 74 | 1016.3 |
| 20260505003304 | 76 | 6 | 0.0 | 2.6 | 0.00 | 0.01 | 0.00 | 75 | 1016.4 |
| 20260505002305 | 76 | 3 | 0.0 | 0.0 | 0.00 | 0.01 | 0.00 | 75 | 1016.5 |
| 20260505001804 | 76 | 106 | 2.6 | 2.6 | 0.00 | 0.01 | 0.00 | 75 | 1016.5 |
| 20260505000805 | 76 | 131 | 1.7 | 2.6 | 0.00 | 0.01 | 0.00 | 75 | 1016.6 |
| 20260505000305 | 75 | 131 | 1.7 | 2.6 | 0.00 | 0.01 | 0.00 | 75 | 1016.7 |
| 20260504235804 | 75 | 134 | 2.6 | 7.8 | 0.00 | 0.01 | 0.00 | 75 | 1016.6 |
| 20260504235305 | 75 | 80 | 2.6 | 6.1 | 0.00 | 0.01 | 0.00 | 76 | 1016.7 |
| 20260504234805 | 74 | 165 | 1.7 | 7.0 | 0.00 | 0.01 | 0.00 | 76 | 1016.7 |
| 20260504234304 | 74 | 117 | 0.9 | 7.0 | 0.00 | 0.01 | 0.00 | 77 | 1016.7 |
| 20260504233806 | 74 | 150 | 0.0 | 2.6 | 0.00 | 0.01 | 0.00 | 77 | 1016.7 |
| 20260504232804 | 74 | 139 | 4.3 | 8.7 | 0.00 | 0.01 | 0.00 | 77 | 1016.6 |
| 20260504232304 | 74 | 140 | 3.5 | 8.7 | 0.00 | 0.01 | 0.00 | 78 | 1016.5 |
| 20260504231804 | 73 | 106 | 4.3 | 7.8 | 0.00 | 0.01 | 0.00 | 78 | 1016.5 |
| 20260504231304 | 73 | 123 | 5.2 | 8.7 | 0.00 | 0.01 | 0.00 | 79 | 1016.5 |
| 20260504230816 | 73 | 116 | 2.6 | 6.1 | 0.00 | 0.01 | 0.00 | 79 | 1016.4 |
| 20260504230304 | 72 | 111 | 2.6 | 7.0 | 0.00 | 0.01 | 0.00 | 79 | 1016.5 |
| 20260504225804 | 72 | 113 | 5.2 | 6.1 | 0.00 | 0.01 | 0.01 | 80 | 1016.4 |
| 20260504225304 | 71 | 149 | 3.5 | 6.1 | 0.00 | 0.01 | 0.01 | 80 | 1016.4 |
| 20260504224804 | 71 | 138 | 5.2 | 8.7 | 0.00 | 0.01 | 0.01 | 80 | 1016.4 |
| 20260504224304 | 71 | 109 | 4.3 | 7.0 | 0.00 | 0.01 | 0.01 | 81 | 1016.4 |